Flag for Canada Weather past 2 weeks in Toronto, Ontario, Canada

50 °F


Feels Like: 46 °F
Forecast: 43 / 58 °F
Wind: 9 mph from Northwest

Location: Toronto Pearson International Airport

Current Time: Oct 9, 2015 at 9:33:18 PM

Latest Report: Oct 9, 2015 at 9:00 PM

Visibility: 15 mi

Pressure: 30.09 "Hg

Humidity: 71%

Dew point: 41 °F

Location of TorontoLocation

Historic Weather in Toronto — Graph


Toronto temperature yesterday

Maximum temperature yesterday: 59 °F (at 3:00 PM)
Minimum temperature yesterday: 46 °F (at 3:00 AM)
Average temperature yesterday: 52 °F

Past Weeks' High & Low Weather Summary

High72 °F (Sep 28, 3:00 PM)100% (Sep 27, 5:00 AM)30.47 "Hg (Sep 27, 5:00 AM)
Low41 °F (Oct 1, 6:00 AM)36% (Oct 1, 3:00 PM)29.78 "Hg (Oct 9, 6:00 AM)
Average57 °F71%30.20 "Hg
* Reported Sep 24 8:00 PM — Oct 9 8:00 PM, Toronto, Weather by CustomWeather, © 2015

Note: Actual official high and low records may vary slightly from our data, if they occured in-between our weather recording intervals... More about our weather records


Toronto weather history for previous 24 hours

Time TempWeatherWind HumidityBarometerVisibility
8:00 PM
Fri, Oct 9
52 °FPassing clouds.13 mph72%30.07 "Hg15 mi
7:00 PM52 °FPartly sunny.16 mph77%30.03 "Hg15 mi
6:00 PM54 °FBroken clouds.16 mph72%30.00 "Hg15 mi
5:00 PM55 °FPartly sunny.21 mph67%29.97 "Hg15 mi
4:00 PM55 °FBroken clouds.26 mph67%29.93 "Hg15 mi
3:00 PM57 °FBroken clouds.24 mphN/A29.89 "Hg15 mi
2:00 PM59 °FBroken clouds.20 mph72%29.87 "Hg15 mi
1:00 PM59 °FBroken clouds.16 mph72%29.85 "Hg15 mi
12:00 PM61 °FPartly sunny.24 mph72%29.83 "Hg15 mi
11:00 AM63 °FMostly cloudy.17 mph77%29.81 "Hg15 mi
10:00 AM61 °FFog.12 mph83%29.81 "Hg6 mi
9:00 AM57 °FFog.8 mph94%29.79 "Hg6 mi
8:00 AM54 °FFog.8 mph94%29.79 "Hg6 mi
7:00 AM54 °FFog.5 mph94%29.78 "Hg4 mi
6:00 AM54 °FFog.5 mph94%29.78 "Hg5 mi
5:00 AM54 °FMostly cloudy.2 mph94%29.79 "Hg8 mi
4:00 AM54 °FLight rain. Mostly cloudy.2 mph94%29.79 "Hg8 mi
3:00 AM52 °FLight rain. Mostly cloudy.No wind94%29.83 "Hg10 mi
2:00 AM50 °FLight rain. Mostly cloudy.5 mph94%29.85 "Hg12 mi
1:00 AM50 °FLight rain. Mostly cloudy.8 mph94%29.88 "Hg10 mi
12:00 AM52 °FLight rain. Overcast.8 mph94%29.90 "Hg12 mi
11:00 PM
Thu, Oct 8
52 °FLight rain. Overcast.7 mph94%29.95 "Hg10 mi
10:00 PM52 °FLight rain. Mostly cloudy.9 mph88%29.97 "Hg10 mi
9:00 PM54 °FLight rain. Mostly cloudy.9 mph77%29.99 "Hg12 mi
Weather by CustomWeather, © 2015

See weather overviewHow to use our weather pages